Home > Weather > Goiânia > Past weeks

Flag for Brazil Weather for the Past 2 Weeks in Goiânia, Goiás, Brazil

Now
68 °F

Passing clouds.


Feels Like: 68 °F
Forecast: 61 / 82 °F
Wind: 3 mph from Northwest

Location: Brasilia Aeroporto

Current Time: Apr 30, 2016 at 1:01:37 AM

Latest Report: Apr 30, 2016 at 12:00 AM


Visibility: N/A

Pressure: 30.12 "Hg (27.54 "Hg at 768m altitude)

Humidity: 100%

Dew Point: 68 °F

Location of GoiâniaLocation

Historic Weather in Goiânia — Graph

°F

Goiânia Temperature Yesterday

Maximum temperature yesterday: 82 °F (at 2:00 PM)
Minimum temperature yesterday: 63 °F (at 5:00 AM)
Average temperature yesterday: 70 °F

High & Low Weather Summary for the Past Weeks

 TemperatureHumidityPressure
High86 °F (Apr 16, 3:00 PM)100% (Apr 27, 10:00 PM)30.24 "Hg (Apr 27, 10:00 PM)
Low61 °F (Apr 15, 3:00 AM)20% (Apr 22, 2:00 PM)29.95 "Hg (Apr 25, 3:00 PM)
Average73 °F63%30.10 "Hg
* Reported Apr 14 11:00 PM — Apr 29 11:00 PM, Goiânia, Weather by CustomWeather, © 2016

Note: Actual official high and low records may vary slightly from our data, if they occured in-between our weather recording intervals... More about our weather records

Advertising

Goiânia Weather History for the Previous 24 Hours

Scroll right to see more
 ConditionsComfort  
Time TempWeatherWind HumidityBarometerVisibility
11:00 PM
Fri, Apr 29
68 °FPassing clouds.6 mph94%30.12 "HgN/A
10:00 PM68 °FPartly cloudy.6 mph100%30.12 "HgN/A
9:00 PM68 °FPassing clouds.5 mph94%30.09 "HgN/A
8:00 PM66 °FPassing clouds.3 mph94%30.09 "HgN/A
7:00 PM70 °FPassing clouds.3 mph88%30.07 "HgN/A
6:00 PM70 °FPassing clouds.5 mph88%30.07 "HgN/A
5:00 PM70 °FBroken clouds.3 mph88%30.04 "HgN/A
4:00 PM70 °FThunderstorms. Partly sunny.13 mph88%N/A2 mi
3:00 PM81 °FScattered showers. Partly sunny.10 mph51%30.01 "HgN/A
2:00 PM82 °FPartly sunny.6 mph45%30.04 "HgN/A
1:00 PM81 °FPartly sunny.8 mph51%30.07 "HgN/A
12:00 PM79 °FScattered clouds.9 mph58%30.09 "HgN/A
11:00 AM77 °FPassing clouds.10 mph65%30.12 "HgN/A
10:00 AM70 °FPassing clouds.5 mph83%30.12 "HgN/A
9:00 AM68 °FBroken clouds.3 mph83%30.12 "HgN/A
8:00 AM64 °FPartly sunny.3 mph88%30.09 "HgN/A
7:00 AM64 °FSunny.No wind88%30.09 "Hg10 mi
6:00 AM63 °FClear.3 mph94%30.07 "Hg10 mi
5:00 AM63 °FPassing clouds.5 mph94%30.07 "HgN/A
4:00 AM64 °FPassing clouds.3 mph94%30.07 "HgN/A
3:00 AM64 °FPartly cloudy.6 mph94%30.07 "HgN/A
2:00 AM66 °FPassing clouds.3 mph88%30.07 "HgN/A
1:00 AM66 °FPassing clouds.6 mph88%30.09 "HgN/A
Weather by CustomWeather, © 2016

See weather overviewHow to use our weather pages